Location: Montreal
(45.5000°N, 73.5833°W)
Time: 07:29:33
(UTC-04:00)

OTV 5 (USA 277) - Pass Details

Date: 15 October 2017
Orbit: 404 x 417 km, 43.0° (Epoch: 07 September)

Event Time Altitude Azimuth Distance (km) Brightness Sun altitude
Rises 18:42:29 0° 250° (WSW) 2,350 ? -6.7°
Reaches altitude 10° 18:44:38 10° 245° (WSW) 1,489 ? -7.1°
Maximum altitude 18:47:53 47° 170° (S) 557 ? -7.7°
Enters shadow 18:51:00 11° 96° (E) 1,438 ? -8.2°
